SL-16 DEB

Satellite information

Favourite Embed

Satellite Type and Status

DEBRISIN ORBIT

Key statistics

Satellite SL-16 DEB at a glance.

Uptime

11988

Days in orbit

Revolutions

≈ 14.8

Per day

Orbit

LEO

Low Earth Orbit

Inclination

71.5

Latest

Satellite identification and parameters

Extended collection of information and parameters for SL-16 DEB.

Object identification

Identified? True

Debris? True

Object name: SL-16 DEB

International designator: 1992-093ED

Object number (NORAD): 22436

Object ID (CCSDS): 22436

Country: COMMONWEALTH OF INDEPENDENT STATES (CIS)

Current information (Y/N): Y

RCS size: SMALL

Orbital parameters

Period: 97.297 minutes

Inclination: 71.5074 deg

SMA: 7007.433 km

Apoapsis: 654.576 km

Periapsis: 604.019 km

RAAN: 337.6147 deg

Eccentricy: 0.00360738

Argument of periapsis: 127.1424 deg

Mean anomaly: 353.6011 deg

Mean motion: 14.80008998 rev/day

Mean motion (dot): 0.00011917 rev/day2

B* drag term: 0.0015616754 1/REarth

Two-line elements (TLE)

Creation date: Oct. 20, 2025, 6:08 p.m.

Reference frame: TEME

Reference center: EARTH

Epoch: Oct. 20, 2025, 12:07 p.m. UTC

TLE line 0: 0 SL-16 DEB

TLE line 1: 1 22436U 92093ED 25293.50549385 .00011917 00000-0 15617-2 0 9991

TLE line 2: 2 22436 71.5074 337.6147 0036074 127.1424 353.6011 14.80008998729975

Live tracking on map

Real-time ground track for satellite SL-16 DEB.

In-orbit conjunctions

A list of the most updated potential collisions computed for object SL-16 DEB.

Target Orbit TCA Probability of collision Miss distance Type
PEGASUS R/B LEO 2025-05-10 14:55:33 0.0001043967 793.0 (m) ROCKET BODY
RUBIN 4/SL-8 SSO 2025-04-07 11:24:40 0.001723505 102.0 (m) PAYLOAD
CZ-6A DEB SSO 2025-01-18 13:39:25 0.0001139961 93.0 (m) DEBRIS
TITAN 3C TRANSTAGE DEB LEO 2024-11-14 14:36:42 0.0005945408 618.0 (m) DEBRIS
SL-14 R/B LEO 2024-11-08 17:36:53 0.0006212532 612.0 (m) ROCKET BODY

Associated space launch

Second generation ELING satellite

SL-16 DEB was lifted into orbit during the mission ‘Zenit-2 | Tselina-2 12’, on board a Zenit-2 space rocket.

The launch took place on Dec. 25, 1992, 5:56 a.m. from 45/1.

For more information about the launch, click the button.

Launch to space Zenit-2 | Tselina-2 12
Zenit-2 | Tselina-2 12

Agency: N/A

Status: Launch Successful

Launch date: Dec. 25, 1992, 5:56 a.m. UTC

Rocket: Zenit-2

Launch pad: 45/1

Location: Baikonur Cosmodrome, Republic of Kazakhstan

...

Latest news about this satellite

There are no fresh news available about this satellite. Check back as we update our databases every day.


Newsletter sign-up

Weekly statistics, charts and insights to help you stay on top of the space industry.